Simultaneous Nadir Overpasses (SNOs) Predictions

Prediction of SNOs near US between AQUA and NPP Satellite Orbit:

Table of predicted SNOs near US for the next 10.0 days since TLE Epoch: 7/2/2016
Index Date (AQUA) Time (AQUA) AQUA Lat,Lon Date (NPP) Time (NPP) NPP Lat,Lon Distance(km) Time Diff (sec)
1 07/03/2016 06:30:07 46.37, -65.04 07/03/2016 06:31:22 46.76, -67.03 158.31 75
2 07/03/2016 08:08:00 49.93, -88.35 07/03/2016 08:11:48 50.44, -90.83 185.82 228
3 07/03/2016 09:46:53 49.94,-113.06 07/03/2016 09:53:16 50.55,-116.16 230.19 383
4 07/05/2016 19:06:10 49.99, -92.53 07/05/2016 19:02:06 49.69, -94.42 139.15 244
5 07/05/2016 20:45:03 49.99,-117.25 07/05/2016 20:43:34 49.58,-119.74 184.41 89
6 07/08/2016 08:34:33 21.08,-101.63 07/08/2016 08:26:31 21.14,-101.78 16.19 482
7 07/08/2016 10:10:55 30.18,-124.11 07/08/2016 10:05:24 30.32,-124.76 64.40 331
8 07/11/2016 07:18:32 49.91, -76.00 07/11/2016 07:21:03 50.34, -78.19 163.56 151
9 07/11/2016 08:57:25 49.91,-100.72 07/11/2016 09:02:31 50.45,-103.51 208.04 306




NCC Satellite Simultaneous Nadir Overpasses (SNOs) Prediction Service
